sat.trackr.live / text

‹ back to catalog

STARLINK-30824

NORAD 58176 · 2023-167B

PAYLOAD ACTIVE UNKNOWN

§ Identity

Operator
Country
US
Launch date
2023-10-30
Launch site
AFETR
Launch vehicle
Mass (kg)
RCS (m²)

Purposes: comms

External: N2YO · Heavens-Above · Gunter

§ Orbital elements

Epoch: 2026-05-25T04:39:09.947232Z

Period
94.27 min
Inclination
43.0035°
Eccentricity
0.0001247
Mean motion
15.27584498 rev/d
Perigee alt
482.2 km
Apogee alt
483.9 km
Semi-major
6,861.2 km
B*
4.6218e-5
RAAN
71.5051°
Arg perigee
247.1426°
Mean anomaly
112.9294°
Rev number
14,268

§ Raw data

STARLINK-308241 58176U 23167B   26145.19386513  .00001010  00000+0  46218-4 0  99962 58176  43.0035  71.5051 0001247 247.1426 112.9294 15.27584498142685

JSON: /api/v1/satellites/58176 · /tle

For live sub-satellite position, see the globe view (requires WebGL).

§ Visibility from observer

Set your observer location to see the next 7 days of passes ≥ 10°. The values pass through the URL so the page stays shareable.

No JS? Fill the form by hand. The geolocation button needs JavaScript.